Change the Weather History Date:

Saturday, May 31, 2014

  Actual Average Record
Temperature  
Mean Temperature 66 °F -  
Max Temperature 79 °F 69 °F 89 °F (2011)
Min Temperature 54 °F 49 °F 39 °F (2001)
Cooling Degree Days 2    
Growing Degree Days 16 (Base 50)    
Moisture  
Dew Point 52 °F    
Average Humidity 59    
Maximum Humidity 92    
Minimum Humidity 36    
Precipitation  
Precipitation 0.00 in - - ()
Sea Level Pressure  
Sea Level Pressure 30.21 in    
Wind  
Wind Speed 3 mph (ESE)    
Max Wind Speed 12 mph    
Max Gust Speed -    
Visibility 10 miles    
Events      
Averages and records for this station are not official NWS values.
T = Trace of Precipitation, MM = Missing Value Source: NWS Daily Summary

Daily Weather History Graph

Daily Weather History Graph

Search for Another Location

Airport or City:

Trip Planner

Search our weather history database for the weather conditions in past years. The results will help you decide how hot, cold, wet, or windy it might be!

Date:

Astronomy

May. 31, 2014 Rise Set
Actual Time 6:01 AM EDT 9:06 PM EDT
Civil Twilight 5:27 AM EDT 9:40 PM EDT
Nautical Twilight 4:43 AM EDT 10:24 PM EDT
Astronomical Twilight 3:52 AM EDT 11:16 PM EDT
Moon 8:39 AM EDT (5/31) 11:21 PM EDT (5/31)
Length of Visible Light 16h 13m
Length of Day
15h 05m
Waxing Crescent, 8% of the Moon is Illuminated
May 31
Waxing Crescent
Jun 5
First Quarter
Jun 13
Full
Jun 19
Last Quarter
Jun 27
New

Hourly Weather History & Observations

Time (EDT) Temp. Dew Point Humidity Pressure Visibility Wind Dir Wind Speed Gust Speed Precip Events Conditions
12:14 AM 62.1 °F 52.9 °F 72% 30.19 in 10.0 mi SE 3.5 mph - N/A   Clear
12:35 AM 62.4 °F 52.3 °F 70% 30.19 in 10.0 mi ENE 3.5 mph - N/A   Clear
12:55 AM 59.9 °F 54.3 °F 82% 30.20 in 10.0 mi Calm Calm - N/A   Clear
1:35 AM 59.4 °F 54.1 °F 83% 30.21 in 10.0 mi Calm Calm - N/A   Clear
1:55 AM 59.5 °F 53.8 °F 81% 30.21 in 10.0 mi Calm Calm - N/A   Clear
2:14 AM 60.1 °F 53.1 °F 78% 30.21 in 10.0 mi Calm Calm - N/A   Clear
2:35 AM 58.5 °F 53.2 °F 83% 30.21 in 10.0 mi Calm Calm - N/A   Clear
2:55 AM 56.5 °F 52.9 °F 88% 30.22 in 10.0 mi Calm Calm - N/A   Clear
3:14 AM 57.2 °F 53.2 °F 87% 30.22 in 10.0 mi ENE 3.5 mph - N/A   Scattered Clouds
3:35 AM 57.6 °F 53.4 °F 86% 30.23 in 10.0 mi Calm Calm - N/A   Mostly Cloudy
3:54 AM 58.8 °F 53.8 °F 83% 30.23 in 10.0 mi Calm Calm - N/A   Mostly Cloudy
4:15 AM 59.0 °F 53.4 °F 82% 30.23 in 10.0 mi Calm Calm - N/A   Mostly Cloudy
4:35 AM 57.4 °F 53.1 °F 85% 30.23 in 10.0 mi Calm Calm - N/A   Scattered Clouds
4:54 AM 57.4 °F 52.9 °F 85% 30.23 in 10.0 mi Calm Calm - N/A   Clear
5:15 AM 55.9 °F 53.1 °F 90% 30.23 in 10.0 mi Calm Calm - N/A   Scattered Clouds
5:35 AM 56.1 °F 53.1 °F 89% 30.24 in 10.0 mi Calm Calm - N/A   Overcast
5:54 AM 56.3 °F 52.9 °F 88% 30.24 in 10.0 mi Calm Calm - N/A   Mostly Cloudy
6:15 AM 54.9 °F 52.7 °F 92% 30.24 in 10.0 mi Calm Calm - N/A   Scattered Clouds
6:35 AM 55.2 °F 53.1 °F 92% 30.25 in 10.0 mi Calm Calm - N/A   Mostly Cloudy
6:54 AM 55.4 °F 52.7 °F 91% 30.25 in 10.0 mi ENE 3.5 mph - N/A   Scattered Clouds
7:15 AM 57.9 °F 53.6 °F 86% 30.25 in 10.0 mi East 3.5 mph - N/A   Scattered Clouds
7:35 AM 60.1 °F 53.8 °F 80% 30.25 in 10.0 mi East 4.6 mph - N/A   Mostly Cloudy
7:54 AM 61.0 °F 53.1 °F 75% 30.26 in 10.0 mi ESE 3.5 mph - N/A   Scattered Clouds
8:15 AM 63.0 °F 52.9 °F 70% 30.26 in 10.0 mi ESE 3.5 mph - N/A   Clear
8:35 AM 64.6 °F 53.2 °F 67% 30.26 in 10.0 mi East 4.6 mph - N/A   Clear
8:55 AM 66.2 °F 54.5 °F 66% 30.25 in 10.0 mi ESE 3.5 mph - N/A   Clear
9:15 AM 67.3 °F 54.3 °F 63% 30.26 in 10.0 mi East 6.9 mph - N/A   Clear
9:34 AM 68.9 °F 54.1 °F 59% 30.25 in 10.0 mi East 5.8 mph - N/A   Clear
9:55 AM 70.2 °F 53.8 °F 56% 30.25 in 10.0 mi ESE 5.8 mph - N/A   Clear
10:15 AM 71.2 °F 52.3 °F 51% 30.25 in 10.0 mi East 5.8 mph - N/A   Clear
10:34 AM 72.1 °F 52.3 °F 50% 30.25 in 10.0 mi SE 4.6 mph - N/A   Mostly Cloudy
11:15 AM 73.6 °F 50.9 °F 45% 30.24 in 10.0 mi East 4.6 mph - N/A   Clear
11:34 AM 75.2 °F 52.3 °F 45% 30.24 in 10.0 mi SE 6.9 mph - N/A   Clear
11:55 AM 75.4 °F 49.8 °F 41% 30.24 in 10.0 mi SSW 3.5 mph - N/A   Clear
12:15 PM 75.6 °F 49.3 °F 39% 30.24 in 10.0 mi SE 4.6 mph - N/A   Clear
12:34 PM 76.3 °F 47.7 °F 36% 30.23 in 10.0 mi Calm Calm - N/A   Clear
12:55 PM 77.0 °F 50.0 °F 39% 30.22 in 10.0 mi Calm Calm - N/A   Clear
1:14 PM 77.5 °F 50.5 °F 39% 30.22 in 10.0 mi South 3.5 mph - N/A   Clear
1:35 PM 77.9 °F 51.6 °F 40% 30.22 in 10.0 mi East 5.8 mph - N/A   Clear
1:55 PM 78.1 °F 50.4 °F 38% 30.22 in 10.0 mi Calm Calm - N/A   Clear
2:14 PM 78.6 °F 51.4 °F 39% 30.21 in 10.0 mi SSE 4.6 mph - N/A   Clear
2:35 PM 78.8 °F 51.4 °F 38% 30.21 in 10.0 mi SE 3.5 mph - N/A   Clear
2:55 PM 79.2 °F 52.9 °F 40% 30.21 in 10.0 mi East 5.8 mph - N/A   Clear
3:14 PM 77.5 °F 51.1 °F 40% 30.20 in 10.0 mi Calm Calm - N/A   Scattered Clouds
3:35 PM 76.5 °F 51.1 °F 41% 30.20 in 10.0 mi ENE 4.6 mph - N/A   Scattered Clouds
3:55 PM 79.3 °F 51.4 °F 38% 30.20 in 10.0 mi East 4.6 mph - N/A   Scattered Clouds
4:14 PM 78.6 °F 50.2 °F 37% 30.19 in 10.0 mi Calm Calm - N/A   Clear
4:35 PM 78.6 °F 51.4 °F 39% 30.19 in 10.0 mi SE 4.6 mph - N/A   Scattered Clouds
4:55 PM 79.5 °F 51.4 °F 37% 30.19 in 10.0 mi Calm Calm - N/A   Scattered Clouds
5:14 PM 77.9 °F 51.8 °F 40% 30.18 in 10.0 mi SE 6.9 mph - N/A   Scattered Clouds
5:35 PM 78.8 °F 53.2 °F 41% 30.18 in 10.0 mi ESE 8.1 mph - N/A   Scattered Clouds
5:55 PM 78.8 °F 52.2 °F 39% 30.17 in 10.0 mi East 3.5 mph - N/A   Clear
6:14 PM 77.2 °F 52.9 °F 43% 30.17 in 10.0 mi ESE 4.6 mph - N/A   Clear
6:35 PM 78.1 °F 52.3 °F 41% 30.17 in 10.0 mi ESE 9.2 mph - N/A   Clear
6:54 PM 77.4 °F 52.0 °F 41% 30.17 in 10.0 mi ESE 10.4 mph - N/A   Clear
7:15 PM 76.5 °F 52.7 °F 43% 30.16 in 10.0 mi ESE 10.4 mph - N/A   Clear
7:35 PM 75.6 °F 52.7 °F 45% 30.16 in 10.0 mi SSE 10.4 mph - N/A   Clear
7:54 PM 74.7 °F 51.6 °F 44% 30.15 in 10.0 mi SE 10.4 mph - N/A   Clear
8:15 PM 73.6 °F 51.4 °F 46% 30.16 in 10.0 mi SE 10.4 mph - N/A   Clear
8:35 PM 72.0 °F 51.8 °F 49% 30.16 in 10.0 mi SE 10.4 mph - N/A   Clear
8:54 PM 70.5 °F 51.4 °F 51% 30.17 in 10.0 mi SE 11.5 mph - N/A   Clear
9:15 PM 69.3 °F 51.6 °F 53% 30.17 in 10.0 mi SE 10.4 mph - N/A   Clear
9:35 PM 68.2 °F 51.1 °F 54% 30.18 in 10.0 mi SE 9.2 mph - N/A   Clear
10:15 PM 65.1 °F 48.2 °F 54% 30.20 in 10.0 mi SE 8.1 mph - N/A   Clear
10:34 PM 64.2 °F 47.7 °F 55% 30.20 in 10.0 mi SE 6.9 mph - N/A   Clear
10:55 PM 63.7 °F 46.4 °F 53% 30.20 in 10.0 mi SE 6.9 mph - N/A   Clear
11:15 PM 61.7 °F 45.5 °F 55% 30.20 in 10.0 mi SE 8.1 mph - N/A   Clear
11:34 PM 61.2 °F 45.9 °F 57% 30.21 in 10.0 mi SE 8.1 mph - N/A   Clear
11:55 PM 60.6 °F 45.7 °F 58% 30.20 in 10.0 mi SE 9.2 mph - N/A   Clear